Regional Weather Roundup
Issued by NWS

Home | Current Version | Previous Version | Text Only | Print | Product List | Glossary Off
Versions: 1 2 3 4 5 6 7 8 9 10 11 12 13 14 15 16 17 18 19 20 21 22 23 24 25 26 27 28 29 30 31 32 33 34 35 36 37 38 39 40 41 42 43 44 45 46 47 48 49 50

000
ASUS43 KMKX 230911
RWRWI

WISCONSIN REGIONAL WEATHER ROUNDUP
NATIONAL WEATHER SERVICE MILWAUKEE/SULLIVAN WI
400 AM CDT MON OCT 23 2017

NOTE: "FAIR" INDICATES FEW OR NO CLOUDS BELOW 12,000 FEET WITH NO
SIGNIFICANT WEATHER AND/OR OBSTRUCTIONS TO VISIBILITY.

WIZ001-002-006>008-014>016-023>028-231000-
NORTHWEST WISCONSIN

CITY           SKY/WX    TMP DP  RH WIND       PRES   REMARKS
SUPERIOR ARPT  CLOUDY    52  34  50 S6        29.74F
ASHLAND        CLOUDY    52  39  61 S8        29.80F
HAYWARD        CLOUDY    52  38  58 S10       29.82F
SIREN          CLOUDY    55  33  44 S8G16     29.80F
CUMBERLAND     CLOUDY    46  37  71 S8        29.83F
RICE LAKE      CLOUDY    50  39  67 SE9       29.85F
CHETEK         CLOUDY    48  41  77 SE3       29.86F
LADYSMITH      CLOUDY    46  42  84 SE8       29.88F
EAU CLAIRE     CLOUDY    47  42  83 S5        29.88F
MENOMONIE      CLOUDY    50  41  71 SE8       29.86F
NEW RICHMOND   NOT AVBL
OSCEOLA        CLOUDY    53  37  54 S5        29.84F
$$

WIZ003>005-009-010-017-018-231000-
NORTH CENTRAL WISCONSIN

CITY           SKY/WX    TMP DP  RH WIND       PRES   REMARKS
MANITOWISH WTR CLOUDY    41  41 100 S3        29.90S
ARBOR VITAE    PTCLDY    42  40  93 S5        29.89F
WOODRUFF       PTCLDY    42  40  93 S5        29.89F
RHINELANDER    CLEAR     42  40  92 SW8       29.91F
EAGLE RIVER    NOT AVBL
LAND O LAKES   CLEAR     38  38 100 CALM      29.92S
PHILLIPS       CLOUDY    42  41  95 S5        29.89F
TOMAHAWK         N/A     35  34  96 CALM      29.91F FOG
MEDFORD        PTCLDY    39  37  95 SE3       29.90F
MERRILL        FOG       29  29 100 NE3       29.93F VSB 1/2
$$

WIZ029-030-035-036-043>047-231000-
CENTRAL WISCONSIN

CITY           SKY/WX    TMP DP  RH WIND       PRES   REMARKS
WAUSAU         FOG       36  36 100 E3        29.91F VSB 1/2
MOSINEE        SNOW      36  36 100 CALM      29.93F VSB 1/2
MARSHFIELD     CLEAR     38  36  92 S6        29.91F WCI  33
STEVENS POINT  FOG       38  38 100 CALM      29.95F VSB 1/4
WAUPACA        FOG       41  40  97 CALM      29.95F VSB 1/4
WAUTOMA        FOG      N/A N/A N/A CALM      29.96F VSB 1/4
WISC RAPIDS    CLEAR     37  36  96 S3        29.94F FOG
CAMP DOUGLAS   NOT AVBL
$$

WIZ011>013-019>022-031-037>040-048>050-231000-
NORTHEAST WISCONSIN

CITY           SKY/WX    TMP DP  RH WIND       PRES   REMARKS
ANTIGO         FOG       32  32 100 CALM      29.93F VSB 1/2
SHAWANO        FOG       43  42  95 CALM      29.95F VSB 1/4
OCONTO         CLOUDY    43  43 100 CALM      29.95F VSB 1/2
STURGEON BAY   FOG       44  43  96 CALM      29.96F VSB 1/4
GREEN BAY      FOG       44  44 100 W3        29.96F VSB 1/4
MANITOWOC      FOG       45  45 100 CALM      29.96F VSB 1/4
APPLETON       FOG       43  43 100 CALM      29.94F VSB 1/4
CLINTONVILLE   FOG      N/A N/A N/A CALM      29.95F VSB 1/4
OSHKOSH        MOCLDY    45  44  97 CALM      29.95F
$$

WIZ032>034-041-042-053>061-231000-
SOUTHWEST WISCONSIN

CITY           SKY/WX    TMP DP  RH WIND       PRES   REMARKS
LA CROSSE      CLEAR     47  44  90 SE9       29.92F
SPARTA         CLEAR     31  31 100 CALM      29.94F
VIROQUA        CLEAR     43  41  93 S5        29.94F
BOSCOBEL       FOG       41  40  96 CALM      29.96F VSB 1/4
PRAIRIE DU CHI PTCLDY    38  37  96 CALM      29.96F FOG
PLATTEVILLE    CLOUDY    42  42 100 S5        29.97S
$$

WIZ056-057-062-063-064-067-068-231000-
SOUTH CENTRAL WISCONSIN

CITY           SKY/WX    TMP DP  RH WIND       PRES   REMARKS
REEDSBURG      CLOUDY    37  37 100 CALM      29.95F
BARABOO/DELLS  CLOUDY    41  40  97 CALM      29.95F
LONE ROCK      FOG       40  40 100 CALM      29.96F VSB 1/4
MINERAL POINT  CLOUDY    43  43 100 CALM      29.96F FOG
MADISON        CLOUDY    44  43  96 CALM      29.95F FOG
MIDDLETON        N/A     44  44 100 CALM      29.96F VSB 1
WATERTOWN      FOG       44  44 100 CALM      29.96S VSB 3/4
MONROE         CLOUDY    45  45 100 SW3       29.97S
JANESVILLE     CLOUDY    46  46 100 CALM      29.97R
$$

WIZ051-052-058>065-066-070>072-231000-
SOUTHEAST WISCONSIN

CITY           SKY/WX    TMP DP  RH WIND       PRES   REMARKS
MILWAUKEE      LGT RAIN  51  50  96 NW6       29.96F
WAUKESHA       CLOUDY    46  45  93 NW3       29.97S
MILWAUKEE/TIMM CLOUDY    48  45  87 NW3       29.97S
RACINE         LGT RAIN  50  50 100 NW5       29.97S
BURLINGTON     CLOUDY    48  48 100 CALM      29.97R
KENOSHA        LGT RAIN  50  48  93 N5        29.96S
FOND DU LAC    CLOUDY    45  42  89 CALM      29.96F FOG
SHEBOYGAN      CLOUDY    48  48 100 NW3       29.96F
WEST BEND      CLOUDY    46  46 100 CALM      29.96F
JUNEAU         FOG       43  43  99 CALM      29.97S VSB<1/4
$$

LSZ147-162-231000-
LAKE SUPERIOR

STATION/POSITION TIME  TEMP    WIND        PRES    WAVE
                       AIR SEA DIR/SP/G            HT/PER
                 (UTC) (F)     (DEG/KT/KT) (MB)    (FT/S)
W MID LAKE BUOY  0850   54 51              1009.2F   3/ 5
DEVILS ISLAND    0900   54     160/ 14/ 19 1008.4F
PORT WING        0740          170/ 11/ 16 1009.1F
SAXON HARBOR     0830   52     190/  6/ 13 1010.2F
$$

LMZ867-665-643>646-231000-
LAKE MICHIGAN

STATION/POSITION TIME  TEMP    WIND        PRES    WAVE
                       AIR SEA DIR/SP/G            HT/PER
                 (UTC) (F)     (DEG/KT/KT) (MB)    (FT/S)
S GREEN BAY BUOY 0900   49 58  280/  6/  8 1014.2
N MID LAKE BUOY  0850   53 55  230/  4/  6 1015.0F   1/ 6
NORTHPORT PIER   0840   46        CALM     1014.2F
KEWAUNEE LAKESHO 0848   47        CALM     1013.8F
SHEBOYGAN LAKESH 0900   50     310/  4/  5 1014.3F
PORT WASHINGTON  0840   50     320/  2/  4 1015.2F
MILWAUKEE LAKESH 0850   51     310/  5/  7   N/A
S MID LAKE BUOY  0850   54 60   10/ 16/ 17 1013.6F   2/ 4
KENOSHA   LAKESH 0900   50     340/  7/  8 1014.6
$$

TC  - TEMPERATURE IN CELSIUS
VSB - VISIBILITY IN STATUTE MILES
WCI - WIND CHILL INDEX
HX  - HEAT INDEX





USA.gov is the U.S. government's official web portal to all federal, state and local government web resources and services.